Regional Weather Roundup
Issued by NWS

Home | Current Version | Previous Version | Graphics & Text | Print | Product List | Glossary On
Versions: 1 2 3 4 5 6 7 8 9 10 11 12 13 14 15 16 17 18 19 20 21 22 23 24 25 26 27 28 29 30 31 32 33 34 35 36 37 38 39 40 41 42 43 44 45 46 47 48 49 50
000
ASUS43 KLOT 301009
RWRIL

ILLINOIS REGIONAL WEATHER ROUNDUP
NATIONAL WEATHER SERVICE CHICAGO/ROMEOVILLE IL
500 AM CDT MON MAY 30 2016

NOTE: "FAIR" INDICATES FEW OR NO CLOUDS BELOW 12,000 FEET WITH NO
SIGNIFICANT WEATHER AND/OR OBSTRUCTIONS TO VISIBILITY.

* THESE STATIONS ARE NOT UNDER NWS QUALITY CONTROL. THEY ALSO MAY NOT
  REPORT WEATHER SUCH AS PRECIPITATION OR FOG.

ILZ001-002-007-009-015-016-024-301100-
NORTHWEST ILLINOIS

CITY           SKY/WX    TMP DP  RH WIND       PRES   REMARKS
MOLINE         CLOUDY    65  59  81 NW7       30.01R
STERLING*      CLEAR     61  61 100 CALM      30.02R
SAVANNA*       CLEAR     60  59  97 SE3       30.01R
$$

ILZ003-004-008-010-011-017-018-301100-
NORTH CENTRAL ILLINOIS

CITY           SKY/WX    TMP DP  RH WIND       PRES   REMARKS
ROCKFORD       PTCLDY    62  59  90 CALM      30.03S
FREEPORT*      CLEAR     59  56  91 S3        30.03R
ROCHELLE*      CLEAR     62  59  91 CALM      30.03R
DE KALB*       PTCLDY    64  59  83 NW3       30.03S
$$

ILZ005-006-012>014-019>023-301100-
NORTHEAST ILLINOIS

CITY           SKY/WX    TMP DP  RH WIND       PRES   REMARKS
CHICAGO-OHARE  PTCLDY    64  57  78 W5        30.00S
CHICAGO-MIDWAY MOCLDY    67  57  70 W5        30.00S
AURORA         PTCLDY    60  57  89 CALM      30.02S
LANSING*       CLEAR     59  55  86 SW3       30.02S
JOLIET*        PTCLDY    59  57  94 CALM      30.02S
WAUKEGAN       CLEAR     63  57  81 SW5       30.00R
DUPAGE AIRPORT CLEAR     61  56  83 CALM      30.01S
KANKAKEE*      CLEAR     59  56  90 CALM      30.04R
WHEELING       PTCLDY    65  56  72 CALM      30.01S
MORRIS*        PTCLDY    64  56  77 CALM      30.01S
ROMEOVILLE*    PTCLDY    60  55  81 SW6       30.02S
NORTHERLY ISL    N/A     69  56  62 W5          N/A
NORTHERLY ISL    N/A     69  56  62 W5          N/A
$$

LMZ740>746-301100-
SOUTHERN LAKE MICHIGAN

STATION/POSITION SKY/WX   TEMP    WIND        PRES    VSBY  WAVE
                          AIR SEA DIR/SP/G                  HT/PER
                          (F)     (DEG/KT/KT) (MB)    (MI)  (FT/S)
SOUTHERN BUOY              58 51  240/  8/  8 1015.2R         0
WILMETTE HARBOR            60 56  300/  6/  6   N/A           0
HARRISON CRIB              72     260/ 12/ 13   N/A
BURNHAM HARBOR             69     270/  3/  7   N/A
CALUMET HARBOR             68     240/  3/  5 1015.5R
BURNS HARBOR               66     220/  5/  7 1016.6R
MICHIGAN CITY              67     190/  6/  8   N/A
MICHIGAN CITY 6N           61 58  250/  6/  8   N/A           0
ST. JOSEPH                 63 62  220/  6/  6   N/A           1
$$

ILZ025>027-034>036-040-047-049-050-058-095>099-301100-
WEST-CENTRAL ILLINOIS

CITY           SKY/WX    TMP DP  RH WIND       PRES   REMARKS
QUINCY         CLEAR     65  62  90 S5        30.03R
GALESBURG*     CLEAR     59  57  92 CALM      30.02S
MACOMB*        PTCLDY    62  60  92 CALM      30.05R
JACKSONVILLE*  MOCLDY    64  62  92 CALM      30.04R
PITTSFIELD*    CLEAR     64  63  95 CALM      30.05R
$$

ILZ028>032-037-038-041>044-048-051>054-059>061-301100-
CENTRAL ILLINOIS

CITY           SKY/WX    TMP DP  RH WIND       PRES   REMARKS
PONTIAC        CLOUDY    61  58  91 CALM      30.03S
BLOOMINGTON    CLOUDY    63  60  90 SW5       30.05S
DECATUR        CLOUDY    62  57  83 CALM      30.04S
PEORIA         CLOUDY    62  58  86 CALM      30.03S
LACON*         CLOUDY    62  58  87 CALM      30.01F
LINCOLN*       CLOUDY    63  60  90 CALM      30.04R
SPRINGFIELD    PTCLDY    64  60  87 CALM      30.04S
TAYLORVILLE    CLOUDY    60  59  95 CALM      30.05R
$$

ILZ033-039-045-046-055>057-062-063-301100-
EAST-CENTRAL ILLINOIS

CITY           SKY/WX    TMP DP  RH WIND       PRES   REMARKS
CHAMPAIGN      CLOUDY    61  57  87 SW6       30.04S
RANTOUL*       CLOUDY    64  60  87 CALM      30.04F
MATTOON        CLOUDY    64  58  80 CALM      30.04F
PARIS*         PTCLDY    60  58  93 CALM      30.06S
$$

ILZ079-100>102-301100-
SOUTHWEST ILLINOIS

CITY           SKY/WX    TMP DP  RH WIND       PRES   REMARKS
ALTON          CLEAR     62  61  97 CALM      30.05R
BELLEVILLE     CLEAR     63  63 100 CALM      30.04R
CAHOKIA*       CLEAR     64  61  90 CALM      30.04S
SPARTA*        CLEAR     63  62  96 CALM      30.06R
$$

ILZ064>066-069>071-074>076-080>082-084>086-088>090-092>094-301100-
SOUTH-CENTRAL ILLINOIS

CITY           SKY/WX    TMP DP  RH WIND       PRES   REMARKS
CARBONDALE     PTCLDY    62  60  93 CALM      30.05S
CAIRO*         CLEAR     63  63  99 CALM      30.05S
EFFINGHAM*     CLOUDY    62  62 100 CALM      30.07R
MARION         CLEAR     63  63 100 CALM      30.07R
MT. VERNON     PTCLDY    59  55  88 CALM      30.06R
CENTRALIA*     CLEAR     63  63 100 CALM      30.05R
SALEM*         CLEAR     64  62  93 CALM      30.05S
METROPOLIS*    CLEAR     62  62 100 CALM      30.05S
$$

ILZ067-068-072-073-078-083-087-091-301100-
SOUTHEAST ILLINOIS

CITY           SKY/WX    TMP DP  RH WIND       PRES   REMARKS
LAWRENCEVILLE  CLOUDY    64  62  93 CALM      30.05S
FLORA*         CLOUDY    62  61  95 CALM      30.05S
FAIRFIELD*     CLEAR     62  62  99 CALM      30.05R
HARRISBURG*    PTCLDY    63  63  99 CALM      30.06R
ROBINSON*      CLOUDY    58  58  99 CALM      30.06S
CARMI*         CLOUDY    63  62  97 CALM      30.05S
$$

ABBREVIATIONS USED IN REMARKS
   TC - TEMPERATURE IN CELSIUS
  WCI - WIND CHILL INDEX
   HX - HEAT INDEX
  VSB - VISIBILITY
$$




USA.gov is the U.S. government's official web portal to all federal, state and local government web resources and services.